ABS-2A

Last updated on Mon Apr 24 2017 00:17:23 GMT+0000 (Coordinated Universal Time)

1 41588U 16038A 17112.20778622 -.00000093 00000-0 00000-0 0 9993 2 41588 0.0162 206.7789 0001638 99.2167 53.9892 1.00271277 3194
UTC large
Height (km)
Speed (km/s)
/
Latitude / Longitude
Inclination (degrees)
Orbital Period (minutes)
Azimuth
Elevation
Range (km)
Doppler Factor

Next 0 passes for location: London (51.5072 / 0.1276)

Sorry there are no passes over London.
ABS-2A